CES1700 ZGGG-ZPPP

Flight info

Callsign CES1700
Flight time N/A
Altitude 30100
Route VIBOS1 VIBOS R473 ZUH R200 LH R339 BSE A599 LXI LXI2L
Aircraft A320/M-SDE3FGHIRWY/LB1

Departure

Time 2026-04-28 01:09
Airport Guangzhou Baiyun International Airport (ZGGG)

Arrival

Time N/A
Airport Kunming Changshui International Airport (ZPPP)
Time Latitude Longitude Altitude Speed Heading
2026-04-28 01:06 23.37601 113.30542 53 ft 0 kts 14°
2026-04-28 01:08 23.37663 113.30558 53 ft 36 kts 13°
2026-04-28 01:08 23.38152 113.30692 54 ft 105 kts 14°
2026-04-28 01:08 23.39047 113.30934 62 ft 157 kts 14°
2026-04-28 01:08 23.40182 113.31232 474 ft 170 kts 15°
2026-04-28 01:09 23.41339 113.31524 1224 ft 171 kts 15°
2026-04-28 01:09 23.42535 113.31827 1781 ft 186 kts 17°
2026-04-28 01:09 23.43871 113.32175 2220 ft 209 kts 16°
2026-04-28 01:09 23.45360 113.32564 2615 ft 232 kts 16°
2026-04-28 01:10 23.47011 113.32993 2971 ft 255 kts 15°
2026-04-28 01:10 23.48771 113.33447 3620 ft 263 kts 14°
2026-04-28 01:10 23.50568 113.33907 4448 ft 267 kts 13°
2026-04-28 01:10 23.52386 113.34375 5244 ft 270 kts 13°
2026-04-28 01:11 23.54221 113.34850 6007 ft 273 kts 14°
2026-04-28 01:11 23.55951 113.35705 6706 ft 276 kts 38°
2026-04-28 01:11 23.57223 113.37255 7392 ft 277 kts 64°
2026-04-28 01:11 23.57703 113.39255 8102 ft 274 kts 94°
2026-04-28 01:12 23.57615 113.41332 8792 ft 277 kts 93°
2026-04-28 01:12 23.57710 113.43449 9472 ft 282 kts 88°
2026-04-28 01:12 23.57849 113.45593 10129 ft 286 kts 88°
2026-04-28 01:12 23.58001 113.47767 10737 ft 290 kts 87°
2026-04-28 01:13 23.58163 113.49967 11349 ft 293 kts 87°
2026-04-28 01:13 23.58498 113.54457 12592 ft 300 kts 89°
2026-04-28 01:13 23.58252 113.56707 13172 ft 300 kts 111°
2026-04-28 01:14 23.57295 113.58713 13695 ft 302 kts 132°
2026-04-28 01:14 23.55707 113.60259 13821 ft 315 kts 155°
2026-04-28 01:14 23.53675 113.61305 13942 ft 333 kts 160°
2026-04-28 01:14 23.51501 113.62368 14060 ft 353 kts 159°
2026-04-28 01:15 23.49208 113.63501 14180 ft 371 kts 159°
2026-04-28 01:15 23.46802 113.64704 14301 ft 389 kts 158°
2026-04-28 01:15 23.44319 113.65959 14623 ft 397 kts 158°
2026-04-28 01:15 23.41804 113.67238 15066 ft 401 kts 158°
2026-04-28 01:16 23.39265 113.68529 15524 ft 404 kts 158°
2026-04-28 01:16 23.36614 113.69492 15953 ft 402 kts 174°
2026-04-28 01:16 23.33845 113.69496 16376 ft 398 kts 193°
2026-04-28 01:16 23.31251 113.68512 16807 ft 395 kts 211°
2026-04-28 01:17 23.29103 113.66682 17267 ft 394 kts 230°
2026-04-28 01:17 23.27570 113.64227 17706 ft 394 kts 242°
2026-04-28 01:17 23.26241 113.61602 18128 ft 397 kts 241°
2026-04-28 01:17 23.24859 113.58994 18512 ft 400 kts 240°
2026-04-28 01:18 23.23426 113.56393 18879 ft 402 kts 239°
2026-04-28 01:18 23.21975 113.53824 19257 ft 405 kts 239°
2026-04-28 01:18 23.20492 113.51213 19613 ft 407 kts 239°
2026-04-28 01:18 23.19004 113.48581 19968 ft 410 kts 239°
2026-04-28 01:19 23.17491 113.45888 20308 ft 413 kts 240°
2026-04-28 01:19 23.16502 113.44121 20553 ft 414 kts 240°
2026-04-28 01:19 23.14521 113.40565 21005 ft 417 kts 240°
2026-04-28 01:19 23.13007 113.37870 21332 ft 419 kts 239°
2026-04-28 01:20 23.11466 113.35164 21657 ft 421 kts 239°
2026-04-28 01:20 23.10416 113.33339 21881 ft 423 kts 239°
2026-04-28 01:20 23.08848 113.30622 22182 ft 425 kts 239°
2026-04-28 01:20 23.07294 113.27928 22477 ft 427 kts 239°
2026-04-28 01:21 23.04780 113.24570 22863 ft 433 kts 223°
2026-04-28 01:21 23.03171 113.23273 23049 ft 437 kts 213°
2026-04-28 01:21 23.00381 113.21919 23331 ft 444 kts 198°
2026-04-28 01:21 22.96247 113.21430 23653 ft 454 kts 178°
2026-04-28 01:22 22.94171 113.21791 23816 ft 459 kts 168°
2026-04-28 01:22 22.91068 113.22840 24066 ft 462 kts 165°
2026-04-28 01:22 22.88045 113.23900 24346 ft 463 kts 165°
2026-04-28 01:22 22.84938 113.24986 24605 ft 464 kts 165°
2026-04-28 01:23 22.81863 113.26056 24855 ft 465 kts 165°
2026-04-28 01:23 22.78778 113.27126 25100 ft 466 kts 165°
2026-04-28 01:23 22.75684 113.28197 25334 ft 467 kts 165°
2026-04-28 01:23 22.72583 113.29268 25564 ft 468 kts 165°
2026-04-28 01:24 22.69469 113.30344 25790 ft 470 kts 165°
2026-04-28 01:24 22.66394 113.31410 26017 ft 471 kts 165°
2026-04-28 01:24 22.63269 113.32492 26246 ft 472 kts 165°
2026-04-28 01:24 22.60135 113.33576 26486 ft 474 kts 165°
2026-04-28 01:25 22.56991 113.34661 26695 ft 475 kts 165°
2026-04-28 01:25 22.53844 113.35745 26915 ft 476 kts 165°
2026-04-28 01:25 22.50684 113.36832 27128 ft 477 kts 165°
2026-04-28 01:25 22.47519 113.37924 27395 ft 477 kts 165°
2026-04-28 01:26 22.44365 113.39013 27703 ft 476 kts 165°
2026-04-28 01:26 22.41210 113.40099 28020 ft 475 kts 166°
2026-04-28 01:26 22.38158 113.41148 28319 ft 474 kts 166°
2026-04-28 01:26 22.35019 113.42229 28628 ft 473 kts 166°
2026-04-28 01:27 22.31877 113.43266 28927 ft 470 kts 170°
2026-04-28 01:27 22.28662 113.43631 29209 ft 462 kts 186°
2026-04-28 01:27 22.25527 113.43064 29468 ft 455 kts 201°
2026-04-28 01:27 22.22674 113.41644 29770 ft 449 kts 215°
2026-04-28 01:28 22.20286 113.39508 29989 ft 445 kts 229°
2026-04-28 01:28 22.18524 113.36783 30036 ft 444 kts 244°
2026-04-28 01:28 22.16208 113.30587 30037 ft 445 kts 248°
2026-04-28 01:29 22.13926 113.24375 30036 ft 446 kts 248°
2026-04-28 01:29 22.11485 113.18230 30034 ft 446 kts 245°
2026-04-28 01:30 22.08891 113.12162 30040 ft 446 kts 245°
2026-04-28 01:30 22.06305 113.06087 30060 ft 446 kts 245°
2026-04-28 01:31 22.03763 112.99994 30045 ft 445 kts 246°
2026-04-28 01:31 22.01321 112.93860 30047 ft 445 kts 248°
2026-04-28 01:32 21.98965 112.87699 30051 ft 444 kts 248°
2026-04-28 01:32 21.96600 112.81554 30049 ft 444 kts 247°
2026-04-28 01:33 21.94161 112.75443 30056 ft 443 kts 246°
2026-04-28 01:33 21.91680 112.69368 30045 ft 443 kts 246°
2026-04-28 01:34 21.89209 112.63287 30045 ft 443 kts 246°
2026-04-28 01:34 21.86752 112.57206 30037 ft 443 kts 246°
2026-04-28 01:35 21.84305 112.51122 30037 ft 443 kts 247°
2026-04-28 01:35 21.81887 112.45021 30031 ft 443 kts 247°
2026-04-28 01:36 21.79479 112.38917 30040 ft 443 kts 247°
2026-04-28 01:36 21.77075 112.32858 30043 ft 443 kts 247°
2026-04-28 01:37 21.74645 112.26755 30040 ft 443 kts 247°
2026-04-28 01:37 21.72214 112.20662 30040 ft 443 kts 247°
2026-04-28 01:38 21.69784 112.14577 30044 ft 443 kts 247°
2026-04-28 01:38 21.67355 112.08490 30037 ft 443 kts 247°
2026-04-28 01:39 21.64914 112.02401 30032 ft 444 kts 247°
2026-04-28 01:39 21.62474 111.96305 30032 ft 444 kts 247°
2026-04-28 01:40 21.60027 111.90209 30036 ft 444 kts 247°
2026-04-28 01:40 21.57577 111.84119 30039 ft 443 kts 247°
2026-04-28 01:41 21.55615 111.77857 30047 ft 442 kts 253°
2026-04-28 01:41 21.53822 111.71538 30051 ft 442 kts 253°
2026-04-28 01:42 21.52012 111.65219 30045 ft 442 kts 253°
2026-04-28 01:42 21.50194 111.58907 30038 ft 443 kts 253°
2026-04-28 01:43 21.48364 111.52595 30042 ft 443 kts 253°
2026-04-28 01:43 21.46541 111.46282 30042 ft 443 kts 253°
2026-04-28 01:44 21.44735 111.40017 30035 ft 443 kts 253°
2026-04-28 01:44 21.42914 111.33709 30028 ft 443 kts 253°
2026-04-28 01:45 21.41085 111.27401 30038 ft 443 kts 253°
2026-04-28 01:45 21.39258 111.21089 30028 ft 443 kts 253°
2026-04-28 01:46 21.37427 111.14790 30038 ft 442 kts 253°
2026-04-28 01:46 21.35595 111.08510 30037 ft 441 kts 253°
2026-04-28 01:47 21.33763 111.02233 30033 ft 441 kts 253°
2026-04-28 01:47 21.31929 110.95965 30031 ft 440 kts 253°
2026-04-28 01:48 21.30098 110.89701 30038 ft 440 kts 253°
2026-04-28 01:48 21.28273 110.83433 30022 ft 440 kts 253°
2026-04-28 01:49 21.26435 110.77167 30025 ft 440 kts 253°
2026-04-28 01:49 21.24594 110.70902 30019 ft 441 kts 253°
2026-04-28 01:50 21.22748 110.64642 30016 ft 441 kts 253°
2026-04-28 01:50 21.20900 110.58373 30013 ft 441 kts 253°
2026-04-28 01:51 21.19066 110.52142 30011 ft 441 kts 253°
2026-04-28 01:51 21.17215 110.45873 30010 ft 441 kts 253°
2026-04-28 01:52 21.15378 110.39605 30005 ft 441 kts 256°
2026-04-28 01:52 21.14919 110.33109 29999 ft 440 kts 276°
2026-04-28 01:53 21.15556 110.29908 30004 ft 441 kts 287°
2026-04-28 01:53 21.16754 110.26879 30004 ft 444 kts 296°
2026-04-28 01:53 21.19701 110.21063 29997 ft 444 kts 296°
2026-04-28 01:54 21.22636 110.15236 30012 ft 445 kts 296°
2026-04-28 01:54 21.25575 110.09392 30004 ft 445 kts 296°
2026-04-28 01:55 21.28495 110.03581 30010 ft 445 kts 296°
2026-04-28 01:55 21.31439 109.97733 29999 ft 445 kts 296°
2026-04-28 01:56 21.34371 109.91877 29996 ft 446 kts 296°
2026-04-28 01:56 21.37303 109.86014 30010 ft 446 kts 296°
2026-04-28 01:57 21.40231 109.80155 30006 ft 446 kts 296°
2026-04-28 01:57 21.43160 109.74288 30014 ft 446 kts 296°
2026-04-28 01:58 21.46090 109.68420 30003 ft 446 kts 296°
2026-04-28 01:58 21.49024 109.62551 30003 ft 446 kts 296°
2026-04-28 01:59 21.51951 109.56678 30003 ft 446 kts 296°
2026-04-28 01:59 21.54874 109.50801 30002 ft 446 kts 296°
2026-04-28 02:00 21.57784 109.44959 29999 ft 446 kts 296°
2026-04-28 02:00 21.61474 109.39572 30010 ft 450 kts 307°
2026-04-28 02:01 21.65520 109.34417 29985 ft 452 kts 307°
2026-04-28 02:01 21.69569 109.29243 29987 ft 453 kts 307°
2026-04-28 02:02 21.73629 109.24039 29989 ft 453 kts 307°
2026-04-28 02:02 21.77676 109.18841 29991 ft 454 kts 307°
2026-04-28 02:03 21.81734 109.13638 29992 ft 454 kts 307°
2026-04-28 02:03 21.85103 109.09316 29985 ft 454 kts 307°
2026-04-28 02:04 21.89170 109.04106 29984 ft 455 kts 307°
2026-04-28 02:04 21.93935 108.98014 29979 ft 455 kts 307°
2026-04-28 02:05 21.97334 108.93679 29983 ft 455 kts 307°
2026-04-28 02:05 22.02079 108.87612 29976 ft 456 kts 307°
2026-04-28 02:06 22.05503 108.83219 29969 ft 457 kts 307°
2026-04-28 02:06 22.09593 108.77963 29970 ft 458 kts 307°
2026-04-28 02:07 22.13683 108.72705 29977 ft 457 kts 307°
2026-04-28 02:07 22.17784 108.67463 29979 ft 457 kts 307°
2026-04-28 02:08 22.21862 108.62260 29975 ft 457 kts 307°
2026-04-28 02:08 22.25986 108.56987 29967 ft 456 kts 307°
2026-04-28 02:09 22.30051 108.51777 29967 ft 456 kts 307°
2026-04-28 02:09 22.34142 108.46528 29968 ft 456 kts 307°
2026-04-28 02:10 22.38226 108.41278 29979 ft 456 kts 307°
2026-04-28 02:10 22.42299 108.36038 29971 ft 455 kts 307°
2026-04-28 02:11 22.46367 108.30785 29967 ft 455 kts 307°
2026-04-28 02:11 22.50438 108.25541 29986 ft 455 kts 307°
2026-04-28 02:12 22.54489 108.20320 29984 ft 455 kts 307°
2026-04-28 02:12 22.58549 108.15072 29983 ft 455 kts 308°
2026-04-28 02:13 22.62803 108.09982 29982 ft 456 kts 311°
2026-04-28 02:13 22.67236 108.05059 29976 ft 456 kts 311°
2026-04-28 02:14 22.71661 108.00128 29979 ft 456 kts 311°
2026-04-28 02:14 22.76031 107.95133 29968 ft 457 kts 310°